Murtala Muhammed International Airport

Airport
ICAO code: 
DNMM
IATA Code: 
LOS
Summary
ICAO Region: 
AFI
Territory: 
Location: 
Ikeja, Lagos State
Serving: 
Lagos
Elevation: 
135 ft
Coordinates: 
Aerial View: 
6° 34' 40.44" N, 3° 19' 17.616" E
Metar
Observation
DNMM 190000Z VRB02KT 9999 FEW011 27/24 Q1014 NOSIG
Station
Lagos / Ikeja
Date/Time
2022-01-19 00:00:00
Wind speed
02 kts
Lowest cloud amount
few clouds
Temperature
27°C
Dew point
24°C
Humidity
83%
QNH
1014 hPa
Weather condition
n/a

International airport serving Lagos, Nigeria.

Climatology

Tropical Savanna climate (Köppen climate classification Aw)

Runways

Designator Length Width Surface Rops
18L/36R 2742 45 ASP Yes/Yes
18R/36L 3900 60 ASP Yes/Yes
Airport map: 
Aerial View: 

SKYbrary Partners:

Safety knowledge contributed by: